Home > Weather > Trondheim > Past weeks

Flag for Norway Past Weather in Trondheim, Norway — Yesterday and Last 2 Weeks

Now
63 °F

Clear.


Feels Like: 63 °F
Forecast: 52 / 68 °F
Wind: 10 mph from Southeast

Location: Trondheim / Vaernes

Current Time: Jul 28, 2016 at 4:59:30 AM

Latest Report: Jul 28, 2016 at 4:20 AM


Visibility: 10 mi

Pressure: 29.71 "Hg

Humidity: 59%

Dew Point: 48 °F

Location of TrondheimLocation

Past Weather in Trondheim — Graph

°F

Trondheim Temperature Yesterday

Maximum temperature yesterday: 72 °F (at 1:20 PM)
Minimum temperature yesterday: 55 °F (at 1:20 AM)
Average temperature yesterday: 64 °F

High & Low Weather Summary for the Past Weeks

 TemperatureHumidityPressure
High84 °F (Jul 21, 2:50 PM)100% (Jul 13, 7:20 AM)30.12 "Hg (Jul 13, 7:20 AM)
Low45 °F (Jul 19, 3:50 AM)33% (Jul 21, 3:20 PM)29.65 "Hg (Jul 13, 3:50 AM)
Average62 °F75%29.93 "Hg
* Reported Jul 13 3:50 AM — Jul 28 3:50 AM, Trondheim, Weather by CustomWeather, © 2016

Note: Actual official high and low records may vary slightly from our data, if they occured in-between our weather recording intervals... More about our weather records

Advertising

Trondheim Weather History for the Previous 24 Hours

Scroll right to see more
 ConditionsComfort  
Time TempWeatherWind HumidityBarometerVisibility
3:50 AM
Thu, Jul 28
64 °FClear.10 mph56%29.71 "Hg10 mi
3:20 AM64 °FClear.13 mph56%29.71 "Hg10 mi
2:50 AM64 °FClear.9 mph56%29.71 "Hg10 mi
2:20 AM64 °FClear.8 mph56%29.71 "Hg10 mi
1:50 AM64 °FClear.15 mph56%29.71 "Hg10 mi
1:20 AM66 °FClear.13 mph52%29.71 "Hg10 mi
12:50 AM64 °FClear.8 mph56%29.71 "Hg10 mi
12:20 AM66 °FClear.8 mph52%29.71 "Hg10 mi
11:50 PM
Wed, Jul 27
66 °FClear.8 mph52%29.74 "Hg10 mi
11:20 PM68 °FSunny.12 mph49%29.74 "Hg10 mi
10:50 PM68 °FSunny.9 mph49%29.74 "Hg10 mi
10:20 PM68 °FSunny.6 mph49%29.74 "Hg10 mi
9:50 PM70 °FSunny.7 mph46%29.74 "Hg10 mi
9:20 PM70 °FSunny.10 mph46%29.74 "Hg10 mi
8:50 PM72 °FSunny.10 mph44%29.74 "Hg10 mi
8:20 PM72 °FSunny.9 mph47%29.74 "Hg10 mi
7:50 PM72 °FSunny.8 mph47%29.77 "Hg10 mi
7:20 PM72 °FScattered clouds.6 mph44%29.77 "HgN/A
6:50 PM72 °FScattered clouds.8 mph44%29.77 "HgN/A
6:20 PM72 °FScattered clouds.5 mph44%29.77 "HgN/A
5:50 PM70 °FScattered clouds.1 mph57%29.77 "HgN/A
5:20 PM70 °FScattered clouds.5 mph60%29.77 "HgN/A
4:50 PM70 °FScattered showers. Scattered clouds.1 mph57%29.77 "HgN/A
4:20 PM68 °FRain showers. Broken clouds.15 mph56%29.80 "HgN/A
3:50 PM72 °FBroken clouds.5 mph44%29.80 "HgN/A
3:20 PM72 °FBroken clouds.1 mph50%29.80 "HgN/A
2:50 PM72 °FPartly sunny.6 mph50%29.83 "HgN/A
2:20 PM72 °FBroken clouds.10 mph47%29.83 "HgN/A
1:50 PM70 °FScattered clouds.9 mph53%29.83 "HgN/A
1:20 PM72 °FScattered clouds.8 mph53%29.86 "HgN/A
12:50 PM68 °FPassing clouds.7 mph60%29.86 "HgN/A
12:20 PM68 °FPassing clouds.8 mph60%29.86 "HgN/A
11:50 AM66 °FPassing clouds.7 mph64%29.89 "HgN/A
11:20 AM66 °FPassing clouds.7 mph68%29.89 "HgN/A
10:50 AM64 °FPassing clouds.7 mph64%29.92 "HgN/A
10:20 AM63 °FPassing clouds.6 mph73%29.92 "HgN/A
9:50 AM63 °FPassing clouds.7 mph73%29.92 "HgN/A
9:20 AM61 °FPassing clouds.6 mph77%29.92 "HgN/A
8:50 AM61 °FScattered clouds.7 mph77%29.95 "HgN/A
8:20 AM59 °FScattered clouds.7 mph82%29.92 "HgN/A
7:50 AM57 °FScattered clouds.7 mph94%29.95 "HgN/A
7:20 AM57 °FScattered clouds.6 mph94%29.95 "HgN/A
6:50 AM55 °FPartly sunny.6 mph94%29.95 "HgN/A
6:20 AM55 °FPartly sunny.6 mph100%29.95 "HgN/A
5:50 AM55 °FPartly sunny.6 mph100%29.95 "HgN/A
5:20 AM55 °FPartly sunny.5 mph94%29.95 "HgN/A
4:50 AM55 °FPartly cloudy.3 mph94%29.95 "HgN/A
4:20 AM55 °FPassing clouds.6 mph94%29.95 "HgN/A
Weather by CustomWeather, © 2016

See weather overviewHow to use our weather pages